AirNav   Pilot Hours Calculator
 
 352 users online  

29D Grove City Airport
Grove City, Pennsylvania, USA

GOING TO GROVE CITY?


FAA INFORMATION EFFECTIVE 09 SEPTEMBER 2021

Location

FAA Identifier: 29D
Lat/Long: 41-08-45.7000N 080-10-03.9000W
41-08.761667N 080-10.065000W
41.1460278,-80.1677500
(estimated)
Elevation: 1370 ft. / 417.6 m (surveyed)
Variation: 09W (2010)
From city: 3 miles W of GROVE CITY, PA
Time zone: UTC -4 (UTC -5 during Standard Time)
Zip code: 16137

Airport Operations

Airport use: Open to the public
Activation date: 02/1975
Control tower: no
ARTCC: CLEVELAND CENTER
FSS: ALTOONA FLIGHT SERVICE STATION
NOTAMs facility: AOO (NOTAM-D service available)
Attendance: MON-FRI 0800-1600
UNATNDD THANKSGIVING, CHRISTMAS & NEW YEAR'S DAY.
Wind indicator: lighted
Segmented circle: yes
Lights: ACTVT PAPI RWY 10 & 28; MIRL RWY 10/28 - CTAF.
Beacon: white-green (lighted land airport)
Operates sunset to sunrise.

Airport Communications

CTAF/UNICOM: 122.725
YOUNGSTOWN APPROACH: 133.95
YOUNGSTOWN DEPARTURE: 133.95
WX AWOS-3PT at UCP (13 nm SW): 124.175 ((724) 652-4184)
WX AWOS-3PT at FKL (20 nm NE): 118.175 ((814) 437-2066)
  • APCH/DEP SVC PRVDD BY CLEVELAND ARTCC (ZOB) ON FREQS 126.725/291.65 (DUBOIS RCAG) WHEN YOUNGSTOWN APCH CTL CLSD.
  • COMMUNICATIONS PRVDD BY ALTOONA RADIO ON FREQS 122.1R/115.8T (ELLWOOD CITY RCO).

Nearby radio navigation aids

VOR radial/distance  VOR name  Freq  Var
EWCr014/19.4ELLWOOD CITY VOR/DME115.8008W
FKLr225/(22.5)FRANKLIN VOR109.6006W
YNGr121/25.4YOUNGSTOWN VORTAC109.0005W

 
NDB name  Hdg/Dist  Freq  Var  ID
CASTLE066/13.427209WUCP ..- -.-. .--.

Airport Services

Fuel available: 100LL JET-A
100LL:24 HR FUEL AVBL WITH CREDIT CARD.
A:JET-A ANTI-ICE INHIBITOR AVBL ON REQ.
Parking: hangars and tiedowns
Bottled oxygen: NONE

Runway Information

Runway 10/28

Dimensions: 4500 x 75 ft. / 1372 x 23 m
Surface: asphalt, in good condition
Weight bearing capacity: 
Single wheel: 12.5
Runway edge lights: medium intensity
RUNWAY 10  RUNWAY 28
Latitude: 41-08.776833N41-08.748333N
Longitude: 080-10.555333W080-09.575667W
Elevation: 1370.0 ft.1297.0 ft.
Traffic pattern: leftleft
Runway heading: 101 magnetic, 092 true281 magnetic, 272 true
Markings: nonprecision, in good conditionnonprecision, in good condition
Visual slope indicator: 2-light PAPI on left (3.80 degrees glide path)
RWY 10 PAPI UNUSABLE BEYOND 5 DEGREES LEFT OF RUNWAY CENTERLINE.
2-light PAPI on left (3.00 degrees glide path)
Runway end identifier lights: yesyes
Touchdown point: yes, no lightsyes, no lights
Obstructions: 14 ft. brush, 320 ft. from runway, 112 ft. left of centerline, 8:1 slope to clearnone
RWY 28 3 FT BRUSH 185 FT FM THR 92 FT RT. 7 FT BRUSH 82 FT FM THR 143 FT LT.

Airport Ownership and Management from official FAA records

Ownership: Publicly-owned
Owner: BOROUGH OF GROVE CITY
123 W MAIN ST. P.O. BOX 110
GROVE CITY, PA 16127
Phone 724-458-7060
Manager: MICHAEL BAUN
GROVE CITY AIRPORT, 40 OAKLEY KELLY DRIVE
MERCER, PA 16137-8411
Phone 724-748-5530

Airport Operational Statistics

Aircraft based on the field: 19
Single engine airplanes: 14
Multi engine airplanes: 3
Jet airplanes: 1
Helicopters: 1
    
Aircraft operations: avg 35/day *
59% transient general aviation
39% local general aviation
2% air taxi
<1% military
* for 12-month period ending 22 September 2020

Additional Remarks

DEER & GEESE ON AND INVOF ARPT.
DRAINAGE RAVINE 15 FT DEEP LCTD IN SAFETY AREA NORTH OF RY 10.
TWY LGTS STUB TO APRON.
AVOID OVERFLYING FLD DURG DALGT VFR BECAUSE OF PARACHUTE JUMPING ACTIVITY NW CORNER OF FLD.
FOR CD CTC YOUNGSTOWN APCH AT 330-856-4806, WHEN APCH CLSD CTC CLEVELAND ARTCC AT 440-774-0234.
PORTABLE GROUND PWR UNIT AVBL.

Instrument Procedures

NOTE: All procedures below are presented as PDF files. If you need a reader for these files, you should download the free Adobe Reader.

NOT FOR NAVIGATION. Please procure official charts for flight.
FAA instrument procedures published for use from 09 September 2021 at 0901Z to 07 October 2021 at 0900Z.

 
IAPs - Instrument Approach Procedures
RNAV (GPS) RWY 10   download (191KB)
RNAV (GPS) RWY 28   download (198KB)
NOTE: Special Take-Off Minimums/Departure Procedures apply   download (477KB)

Other nearby airports with instrument procedures:

KUCP - New Castle Municipal Airport (13 nm SW)
KFKL - Venango Regional Airport (20 nm NE)
KPJC - Zelienople Municipal Airport (21 nm S)
4G1 - Greenville Municipal Airport (21 nm NW)
KYNG - Youngstown-Warren Regional Airport (24 nm W)
 
Loc | Ops | Rwys | IFR | FBO | Links
Com | Nav | Svcs | Stats | Notes
Area around 29D (Grove City Airport)
 
Road maps at: MapQuest Bing Google
 
Aerial photo
WARNING: Photo may not be current or correct
Aerial photo of 29D (Grove City Airport)
Photo by Bill Pixley
Photo taken 20-Aug-2017
looking west-northwest.

Do you have a better or more recent aerial photo of Grove City Airport that you would like to share? If so, please send us your photo.

 
Sectional chart

 
Airport distance calculator
Flying to Grove City Airport? Find the distance to fly.

From to 29D

Sunrise and sunset
Times for 25-Sep-2021
 Local
(UTC-4)
 Zulu
(UTC)
Morning civil twilight06:4510:45
Sunrise07:1211:12
Sunset19:1323:13
Evening civil twilight19:4023:40

Current date and time
Zulu (UTC)  25-Sep-2021 09:38:11
Local (UTC-4)  25-Sep-2021 05:38:11
 
METAR
KUCP 
13nm SW 
250856Z AUTO 00000KT 10SM CLR 11/08 A3003 RMK AO2 SLP182 T01110078 56010
KFKL 
19nm NE 
250856Z AUTO 17004KT 10SM CLR 09/07 A3004 RMK AO2 SLP172 T00940072 58009
KPJC 
21nm S 
250915Z AUTO 00000KT 2SM BR CLR 06/06 A3004 RMK AO2 VIS 1V5
KYNG 
23nm W 
250851Z 15005KT 10SM SCT250 12/07 A3001 RMK AO2 SLP159 T01170072 56010
KBTP 
25nm SE 
250856Z AUTO 00000KT 10SM CLR 08/07 A3005 RMK AO2 SLP179 T00830072 56010
KBVI 
25nm SW 
250915Z AUTO 16005KT 10SM CLR 11/08 A3003 RMK AO2 T01120081
TAF
KFKL 
19nm NE 
250533Z 2506/2606 19005KT P6SM SCT250 FM251500 20010KT P6SM BKN200 FM252000 24008KT P6SM VCSH BKN040 FM260000 27005KT P6SM BKN040
KYNG 
23nm W 
250537Z 2506/2606 18005KT P6SM SCT250 FM251700 22009KT P6SM -SHRA SCT025 OVC070 FM252000 25008KT P6SM BKN035 FM260000 25006KT P6SM SCT050
NOTAMs
Click for the latest NOTAMs
NOTAMs are issued by the DoD/FAA and will open in a separate window not controlled by AirNav.

 

 
 

FBO, Fuel Providers, and Aircraft Ground Support

  
 Business Name 
 
 Contact 
 
 Services / Description 
 
Fuel Prices
 
Comments
  
Grove City Aviation, Inc. 724-748-5530
no information available

If you are affiliated with Grove City Aviation, Inc. and would like to show here your services, contact info, web link, logo, and more, click here
100LL Jet A
FS $5.50 $4.25 
 Updated 10-Jun-2021
 
   1 read write
FS=Full service
Update Fuel Prices
 

Would you like to see your business listed on this page?

 If your business provides an interesting product or service to pilots, flight crews, aircraft, or users of the Grove City Airport, you should consider listing it here.  To start the listing process, click on the button below
 
Add a business
 

Other Pages about Grove City Airport

Update a link
 
Copyright © AirNav, LLC. All rights reserved. Privacy Policy  Contact